| time (UTC) | temp F | wind direction | speed MPH | gust MPH | rain 1hr in | rain 24hr in | rain mn in | humidity % | barometer mb |
| 20260503233036 | 75 | 26 | 4.0 | 8.0 | 0.00 | 0.00 | 0.00 | 42 | 1012.7 |
| 20260503231513 | 75 | 22 | 4.0 | 8.0 | 0.00 | 0.00 | 0.00 | 41 | 1012.9 |
| 20260503230041 | 75 | 15 | 3.0 | 8.0 | 0.00 | 0.00 | 0.00 | 42 | 1013.1 |
| 20260503224506 | 75 | 53 | 2.0 | 9.0 | 0.00 | 0.00 | 0.00 | 44 | 1013.2 |
| 20260503223038 | 75 | 5 | 5.0 | 10.0 | 0.00 | 0.00 | 0.00 | 43 | 1013.5 |
| 20260503221514 | 76 | 23 | 5.0 | 11.0 | 0.00 | 0.00 | 0.00 | 41 | 1013.7 |
| 20260503220042 | 76 | 53 | 5.0 | 11.0 | 0.00 | 0.00 | 0.00 | 43 | 1013.9 |
| 20260503214526 | 76 | 30 | 4.0 | 11.0 | 0.00 | 0.00 | 0.00 | 41 | 1014.1 |
| 20260503213101 | 76 | 37 | 3.0 | 10.0 | 0.00 | 0.00 | 0.00 | 42 | 1014.1 |
| 20260503211528 | 76 | 16 | 3.0 | 9.0 | 0.00 | 0.00 | 0.00 | 45 | 1014.3 |
| 20260503210112 | 75 | 12 | 2.0 | 11.0 | 0.00 | 0.00 | 0.00 | 43 | 1014.3 |
| 20260503204553 | 74 | 51 | 4.0 | 8.0 | 0.00 | 0.00 | 0.00 | 47 | 1014.5 |
| 20260503203024 | 74 | 46 | 4.0 | 12.0 | 0.00 | 0.00 | 0.00 | 46 | 1014.6 |
| 20260503201552 | 75 | 34 | 2.0 | 10.0 | 0.00 | 0.00 | 0.00 | 43 | 1014.7 |
| 20260503200020 | 74 | 32 | 2.0 | 9.0 | 0.00 | 0.00 | 0.00 | 46 | 1014.8 |
| 20260503194554 | 74 | 11 | 3.0 | 8.0 | 0.00 | 0.00 | 0.00 | 47 | 1015.1 |
| 20260503193035 | 73 | 44 | 3.0 | 9.0 | 0.00 | 0.00 | 0.00 | 50 | 1015.3 |
| 20260503191504 | 74 | 65 | 0.0 | 9.0 | 0.00 | 0.00 | 0.00 | 47 | 1015.4 |
| 20260503190038 | 72 | 70 | 2.0 | 11.0 | 0.00 | 0.00 | 0.00 | 52 | 1015.6 |
| 20260503184515 | 69 | 19 | 4.0 | 12.0 | 0.00 | 0.00 | 0.00 | 55 | 1015.7 |
| 20260503183052 | 68 | 77 | 3.0 | 11.0 | 0.00 | 0.00 | 0.00 | 58 | 1015.8 |
| 20260503181514 | 69 | 40 | 2.0 | 11.0 | 0.00 | 0.00 | 0.00 | 57 | 1016.0 |
| 20260503180047 | 68 | 30 | 3.0 | 9.0 | 0.00 | 0.00 | 0.00 | 58 | 1016.1 |
| 20260503174538 | 68 | 40 | 0.0 | 11.0 | 0.00 | 0.00 | 0.00 | 57 | 1016.4 |
| 20260503173004 | 68 | 28 | 4.0 | 9.0 | 0.00 | 0.00 | 0.00 | 56 | 1016.4 |
| 20260503171545 | 69 | 21 | 2.0 | 10.0 | 0.00 | 0.00 | 0.00 | 55 | 1016.4 |
| 20260503120103 | 52 | 11 | 0.0 | 0.0 | 0.00 | 0.00 | 0.00 | 82 | 1016.8 |
| 20260503081524 | 56 | 11 | 0.0 | 0.0 | 0.00 | 0.00 | 0.00 | 72 | 1016.8 |
| 20260503071547 | 58 | 11 | 0.0 | 0.0 | 0.00 | 0.00 | 0.00 | 68 | 1016.6 |
| 20260503054555 | 60 | 11 | 0.0 | 0.0 | 0.00 | 0.00 | 0.00 | 68 | 1016.4 |
| 20260503053033 | 61 | 11 | 0.0 | 0.0 | 0.00 | 0.00 | 0.00 | 66 | 1016.5 |
| 20260503051507 | 61 | 11 | 0.0 | 0.0 | 0.00 | 0.00 | 0.00 | 64 | 1016.5 |
| 20260503050046 | 60 | 11 | 0.0 | 0.0 | 0.00 | 0.00 | 0.00 | 65 | 1016.5 |
| 20260503044531 | 60 | 11 | 0.0 | 0.0 | 0.00 | 0.00 | 0.00 | 65 | 1016.3 |
| 20260503043055 | 61 | 11 | 0.0 | 0.0 | 0.00 | 0.00 | 0.00 | 62 | 1016.3 |
| 20260503043007 | 61 | 11 | 0.0 | 0.0 | 0.00 | 0.00 | 0.00 | 62 | 1016.3 |
| 20260503041536 | 61 | 11 | 0.0 | 0.0 | 0.00 | 0.00 | 0.00 | 63 | 1016.2 |
| 20260503040009 | 61 | 11 | 0.0 | 0.0 | 0.00 | 0.00 | 0.00 | 62 | 1016.0 |
| 20260503034559 | 62 | 11 | 0.0 | 0.0 | 0.00 | 0.00 | 0.00 | 62 | 1015.8 |
| 20260503033018 | 62 | 11 | 0.0 | 0.0 | 0.00 | 0.00 | 0.00 | 61 | 1015.6 |
| 20260503031551 | 63 | 11 | 0.0 | 0.0 | 0.00 | 0.00 | 0.00 | 60 | 1015.6 |
| 20260503030024 | 63 | 11 | 0.0 | 0.0 | 0.00 | 0.00 | 0.00 | 64 | 1015.5 |
| 20260503024516 | 64 | 11 | 0.0 | 0.0 | 0.00 | 0.00 | 0.00 | 65 | 1015.4 |
| 20260503023001 | 65 | 11 | 0.0 | 0.0 | 0.00 | 0.00 | 0.00 | 65 | 1015.4 |
| 20260503021546 | 66 | 11 | 0.0 | 0.0 | 0.00 | 0.00 | 0.00 | 61 | 1015.5 |
| 20260503020022 | 67 | 11 | 0.0 | 0.0 | 0.00 | 0.00 | 0.00 | 58 | 1015.5 |
| 20260503014610 | 67 | 11 | 0.0 | 0.0 | 0.00 | 0.00 | 0.00 | 54 | 1015.6 |
| 20260503013023 | 68 | 24 | 0.0 | 8.0 | 0.00 | 0.00 | 0.00 | 51 | 1015.8 |
| 20260503011551 | 69 | 15 | 6.0 | 9.0 | 0.00 | 0.00 | 0.00 | 51 | 1015.7 |
| 20260503010025 | 70 | 26 | 0.0 | 9.0 | 0.00 | 0.00 | 0.00 | 50 | 1015.8 |
| 20260503004603 | 70 | 27 | 0.0 | 6.0 | 0.00 | 0.00 | 0.00 | 49 | 1015.9 |
| 20260503004504 | 70 | 26 | 0.0 | 6.0 | 0.00 | 0.00 | 0.00 | 49 | 1015.9 |
| 20260503003031 | 71 | 17 | 0.0 | 5.0 | 0.00 | 0.00 | 0.00 | 49 | 1015.9 |
| 20260503001507 | 72 | 63 | 1.0 | 8.0 | 0.00 | 0.00 | 0.00 | 50 | 1016.0 |
| 20260503000035 | 72 | 45 | 0.0 | 5.0 | 0.00 | 0.00 | 0.00 | 50 | 1016.0 |
| 20260502234507 | 73 | 22 | 1.0 | 8.0 | 0.00 | 0.00 | 0.00 | 48 | 1016.1 |